Flight Track Log - Related Links

Times and Time Zones

All times are in EDT time to prevent confusion due to time zone crossing. See the JZA7927 flight status page for this flight to view local times or setup timezone preferences in your user account.

Time Position Orientation Groundspeed Altitude Reporting Facility
EDT Latitude Longitude Course Direction KTS MPH feet Rate Location/Type
06:12AM 39.2000 -76.5833 322° Northwest 167 192 2,600  Level Potomac TRACON
06:12AM 39.2333 -76.5667 21° North 191 220 3,000 750 Climbing Potomac TRACON
06:14AM 39.2000 -77.0011 270° West  Level FlightAware Approximate
06:14AM 39.3000 -76.5667 360° North 185 213 4,100  Level Potomac TRACON
06:15AM 39.2000 -77.0867 270° West  Level FlightAware Approximate
06:15AM 39.3333 -76.6333 303° West 184 212 5,100  Level Potomac TRACON
06:16AM 39.2161 -77.1580 339° North  Level FlightAware Approximate
06:17AM 39.2712 -77.2044 322° Northwest  Level FlightAware Approximate
06:17AM 39.3500 -76.7500 281° West 177 204 6,900  Level Potomac TRACON
06:18AM 39.3667 -76.8167 288° West 180 207 7,800 950 Climbing Potomac TRACON
06:19AM 39.3833 -76.8667 293° West 174 200 8,800 889 Climbing Potomac TRACON
06:20AM 39.3833 -76.9167 270° West 177 204 9,400 833 Climbing Potomac TRACON
06:21AM 39.3833 -76.9833 270° West 179 206 10,300 824 Climbing Potomac TRACON
06:21AM 39.3833 -77.0333 270° West 184 212 10,800 813 Climbing Potomac TRACON
06:22AM 39.3667 -77.1000 252° West 187 215 11,600 847 Climbing Potomac TRACON
06:24AM 39.4175 -77.1925 305° West 183 211 13,300 852 Climbing Washington Center
06:25AM 39.4544 -77.2392 316° Northwest 183 211 14,200 793 Climbing Washington Center
06:26AM 39.4956 -77.2831 321° Northwest 183 211 14,900 744 Climbing Washington Center
06:27AM 39.5344 -77.3297 317° Northwest 189 217 15,700 744 Climbing Washington Center
06:28AM 39.5733 -77.3764 317° Northwest 189 217 16,400 626 Climbing Washington Center
06:30AM 39.6472 -77.4472 324° Northwest 193 222 17,400 593 Climbing New York Center
06:31AM 39.7094 -77.4531 356° North 187 215 18,000 645 Climbing New York Center
06:32AM 39.7572 -77.4550 358° North 198 228 18,700 650 Climbing New York Center
06:33AM 39.8164 -77.4794 342° North 198 228 19,300 555 Climbing New York Center
06:34AM 39.8672 -77.5006 342° North 198 228 19,800 347 Climbing New York Center
06:35AM 39.9206 -77.5192 345° North 198 228 20,000 99 Climbing New York Center
06:36AM 39.9839 -77.5389 347° North 209 241 20,000  Level New York Center
06:37AM 40.0453 -77.5611 345° North 222 255 20,000  Level New York Center
06:38AM 40.1106 -77.5839 345° North 222 255 20,000  Level New York Center
06:39AM 40.1717 -77.6089 343° North 228 262 20,000  Level New York Center
06:40AM 40.2353 -77.6286 347° North 228 262 20,000  Level New York Center
06:42AM 40.3594 -77.6758 344° North 233 268 20,000  Level Cleveland Center
06:43AM 40.4228 -77.7031 342° North 233 268 20,000  Level Cleveland Center
06:44AM 40.4836 -77.7222 347° North 228 262 20,000  Level Cleveland Center
06:45AM 40.5489 -77.7467 344° North 228 262 20,000  Level Cleveland Center
06:46AM 40.6100 -77.7686 345° North 228 262 20,000  Level Cleveland Center
06:47AM 40.6708 -77.7908 345° North 228 262 20,000  Level Cleveland Center
06:48AM 40.7339 -77.8128 345° North 228 262 20,000  Level Cleveland Center
06:49AM 40.7972 -77.8375 344° North 228 262 20,000  Level Cleveland Center
06:50AM 40.8603 -77.8594 345° North 228 262 20,000  Level Cleveland Center
06:51AM 40.9214 -77.8844 343° North 228 262 20,000  Level Cleveland Center
06:52AM 40.9906 -77.9092 345° North 228 262 20,000  Level Cleveland Center
06:53AM 41.0517 -77.9314 345° North 228 262 20,000  Level Cleveland Center
06:54AM 41.1147 -77.9536 345° North 228 262 20,000  Level Cleveland Center
06:55AM 41.1758 -77.9761 345° North 228 262 20,000  Level Cleveland Center
06:56AM 41.2389 -78.0011 343° North 228 262 20,000  Level Cleveland Center
06:57AM 41.2997 -78.0236 344° North 228 262 20,000  Level Cleveland Center
06:58AM 41.3628 -78.0461 345° North 228 262 20,000  Level Cleveland Center
06:59AM 41.4239 -78.0714 343° North 228 262 20,000  Level Cleveland Center
07:00AM 41.4869 -78.0911 347° North 228 262 20,000  Level Cleveland Center
07:01AM 41.5478 -78.1167 343° North 228 262 20,000  Level Cleveland Center
07:02AM 41.6089 -78.1392 345° North 228 262 20,000  Level Cleveland Center
07:03AM 41.6697 -78.1619 344° North 228 262 20,000  Level Cleveland Center
07:04AM 41.7264 -78.1847 343° North 228 262 20,000  Level Cleveland Center
07:05AM 41.7894 -78.2075 345° North 228 262 20,000  Level Cleveland Center
07:06AM 41.8525 -78.2303 345° North 228 262 20,000  Level Cleveland Center
07:07AM 41.9156 -78.2531 345° North 228 262 20,000  Level Cleveland Center
07:08AM 41.9744 -78.2789 342° North 228 262 20,000  Level Cleveland Center
07:09AM 42.0375 -78.3019 345° North 228 262 20,000  Level Cleveland Center
07:10AM 42.1006 -78.3247 345° North 228 262 20,000  Level Cleveland Center
07:11AM 42.1614 -78.3506 343° North 228 262 20,000  Level Cleveland Center
07:12AM 42.2328 -78.3761 345° North 228 262 20,000  Level Cleveland Center
07:13AM 42.2958 -78.4019 343° North 228 262 20,000  Level Cleveland Center
07:14AM 42.3589 -78.4253 345° North 228 262 20,000  Level Cleveland Center
07:15AM 42.4217 -78.4511 343° North 228 262 20,000  Level Cleveland Center
07:16AM 42.4847 -78.4744 345° North 228 262 20,000 -150 Level Cleveland Center
07:17AM 42.5478 -78.5006 343° North 228 262 19,700 -650 Descending Cleveland Center
07:18AM 42.5989 -78.5636 318° Northwest 233 268 18,700 -950 Descending Cleveland Center
07:19AM 42.6583 -78.6294 321° Northwest 250 288 17,800 -1,000 Descending Cleveland Center
07:20AM 42.7219 -78.6953 323° Northwest 268 308 16,700 -1,050 Descending Cleveland Center
07:21AM 42.7814 -78.7614 321° Northwest 268 308 15,700 -1,000 Descending Cleveland Center
07:22AM 42.8389 -78.8306 319° Northwest 268 308 14,700 -850 Descending Cleveland Center
07:23AM 42.8981 -78.8942 322° Northwest 273 314 14,000 -457 Descending Cleveland Center
07:24AM 42.9167 -78.9000 347° North 270 311 14,000  Level Toronto Center
07:25AM 42.9667 -78.9667 316° Northwest 260 299 14,000  Level Toronto Center
07:26AM 43.0333 -79.0333 324° Northwest 250 288 14,000  Level Toronto Center
07:27AM 43.0833 -79.0833 324° Northwest 250 288 14,000 -400 Level Toronto Center
07:28AM 43.1333 -79.1500 316° Northwest 250 288 13,200 -900 Descending Toronto Center
07:29AM 43.1833 -79.2167 316° Northwest 270 311 12,200 -1,000 Descending Toronto Center
07:30AM 43.2500 -79.2833 324° Northwest 280 322 11,200 -950 Descending Toronto Center
07:31AM 43.3167 -79.3500 324° Northwest 280 322 10,300 -900 Descending Toronto Center
07:32AM 43.3833 -79.3833 340° North 270 311 9,400 -950 Descending Toronto Center
07:33AM 43.4500 -79.4333 331° Northwest 270 311 8,400 -700 Descending Toronto Center
07:34AM 43.5167 -79.4667 340° North 260 299 8,000 -200 Descending Toronto Center
07:35AM 43.5833 -79.4667 360° North 240 276 8,000 -600 Level Toronto Center
07:36AM 43.6333 -79.4500 14° North 220 253 6,800 -1,700 Descending Toronto Center
07:37AM 43.6833 -79.3833 44° Northeast 230 265 4,600 -1,900 Descending Toronto Center
07:38AM 43.7333 -79.4000 346° North 220 253 3,000 -850 Descending Toronto Center
07:39AM 43.7500 -79.4500 295° West 190 219 2,900 -500 Descending Toronto Center
07:40AM 43.7167 -79.5000 227° Southwest 180 207 2,000 -900 Descending Toronto Center

Login

Don't have an account? Register now (free) for customized features, flight alerts, and more!